Regional Weather Roundup
Issued by NWS Jackson, KY

Home | Current Version | Previous Version | Graphics & Text | Print | Product List | Glossary On
Versions: 1 2 3 4 5 6 7 8 9 10 11 12 13 14 15 16 17 18 19 20 21 22 23 24 25 26 27 28 29 30 31 32 33 34 35 36 37 38 39 40 41 42 43 44 45 46 47 48 49 50
000
ASUS43 KJKL 230019
RWRJKL

EAST KENTUCKY HOURLY WEATHER ROUNDUP
NATIONAL WEATHER SERVICE JACKSON KY
800 PM EDT MON SEP 22 2014

NOTE: "FAIR" INDICATES FEW OR NO CLOUDS BELOW 12,000 FEET WITH
NO SIGNIFICANT WEATHER AND/OR OBSTRUCTIONS TO VISIBILITY.

* THESE REPORTS ARE NOT UNDER NWS QUALITY CONTROL AND MAY NOT
  REPORT WEATHER SUCH AS PRECIPITATION AND FOG.

KYZ079-080-083-085-087-088-110-112-115-119-120-230100
...EASTERN KENTUCKY...

CITY           SKY/WX    TMP DP  RH WIND       PRES   REMARKS
JACKSON        CLEAR     59  47  64 VRB5      30.21R
6HR MIN TEMP:  59; 6HR MAX TEMP:  68;

LONDON         CLEAR     60  48  64 NE3       30.21R
6HR MIN TEMP:  60; 6HR MAX TEMP:  69;

SOMERSET*      CLEAR     59  43  55 NE3       30.21R
MONTICELLO*    CLEAR     56  50  80 CALM      30.21R
6HR MIN TEMP:  56; 6HR MAX TEMP:  72;

MIDDLESBORO*   CLEAR     59  51  76 CALM      30.20R
6HR MIN TEMP:  59; 6HR MAX TEMP:  69;

HARLAN APT*    CLEAR     57  48  72 MISG      30.20R
HAZARD APT*    CLEAR     59  50  72 CALM      30.21R
BLACK MTN*       N/A     46  46 100 N7          N/A
PIKEVILLE APT* CLEAR     57  48  72 NE5       30.21R
BIG SANDY*     CLEAR     56  51  81 CALM      30.21R
6HR MIN TEMP:  56; 6HR MAX TEMP:  66;

MOREHEAD APT*  CLEAR     57  46  67 CALM      30.23R
ASHLAND*       CLEAR     57  46  67 N3        30.19
$$

KYZ035-036-041-042-044-050-067-078-099-230100
...CENTRAL KENTUCKY...

CITY           SKY/WX    TMP DP  RH WIND       PRES   REMARKS
MT STERLING*   CLEAR     57  48  72 CALM      30.22S
FLEMING/MASON* CLEAR     59  45  58 N3        30.22S
DANVILLE*      CLEAR     55  43  62 N3        30.23R
RICHMOND*      CLEAR     57  45  62 CALM      30.21R
LEXINGTON      CLEAR     60  45  57 N8        30.22R
6HR MIN TEMP:  60; 6HR MAX TEMP:  69;

FRANKFORT      CLEAR     59  46  62 CALM      30.22R
6HR MIN TEMP:  59; 6HR MAX TEMP:  68;

$$

KYZ091>093-OHZ055-061-077-WVZ005-015-034-035-042-230100
...SOUTHERN OHIO/WEST VIRGINIA...

CITY           SKY/WX    TMP DP  RH WIND       PRES   REMARKS
COVINGTON      CLEAR     59  43  55 NW6       30.23R
COLUMBUS       CLEAR     58  40  51 N3        30.21S
DAYTON         CLEAR     60  41  49 N5        30.24R
WILMINGTON     CLEAR     58  39  49 NW6       30.22S
HUNTINGTON     CLEAR     62  46  55 N3        30.19R
CHARLESTON     PTCLDY    57  51  80 CALM      30.19R
PINEVILLE*     PTCLDY    52  52  99 MISG      30.26R
BECKLEY        CLOUDY    53  44  71 N5        30.23R
BLUEFIELD      MOCLDY    55  45  68 N5        30.22R
$$

VAZ002-007-008-TNZ017-027-036-066-071-230100
...SOUTHWEST VIRGINIA/EAST TENNESSEE...

CITY           SKY/WX    TMP DP  RH WIND       PRES   REMARKS
WISE*          CLEAR     54  45  71 N5        30.23R
JONESVILLE*    CLEAR     59  50  72 CALM      30.20S
ABINGDON*      CLEAR     59  49  70 CALM      30.20R
BRISTOL        PTCLDY    58  48  69 CALM      30.18R
KNOXVILLE      CLEAR     65  49  56 N7        30.14R
OAK RIDGE      CLEAR     65  47  52 VRB3      30.18R
CROSSVILLE     CLEAR     63  48  58 N5        30.20R
NASHVILLE      CLEAR     67  45  45 NE8       30.17R
$$

...KEY TO REMARKS...
VSB - VISIBILITY IN MILES
WCI - WIND CHILL INDEX
HX  - HEAT INDEX

$$


USA.gov is the U.S. government's official web portal to all federal, state and local government web resources and services.